Tracking 25612 objects as of 20-May-2022
HD Live streaming from Space Station
objects crossing your sky now

RSW-02

Track RSW-02 now!
10-day predictions


NORAD ID: 49114
Int'l Code: 2021-076C
Perigee: 1,093.4 km
Apogee: 1,119.3 km
Inclination: 86.4 °
Period: 107.2 minutes
Semi major axis: 7477 km
RCS: Unknown
Launch date: August 24, 2021
Source: People's Republic of China (PRC)
Launch site: Jiuquan Satellite Launch Center, China (JSC)
aabbcc
Your satellite tracking list
Your tracking list is empty




NASA's NSSDC Master Catalog

Two Line Element Set (TLE):
1 49114U 21076C   22140.53170962  .00000064  00000-0  85335-4 0  9995
2 49114  86.4053 329.7911 0017310 266.9772  92.9392 13.42711505 36103
Source of the keplerian elements: AFSPC